TIME,�g��[���C[MJ/h],����[MJ/h],�Ɩ�[MJ/h],�~�[[MJ/h],�①��[MJ/h],��y���[MJ/h],�Ǝ��q��[MJ/h],���̑�[MJ/h],�����G�l���M�[[MJ/h]
2002/11/1 0:00,10.8242,0,0,0.123,0.1308,0.4134,0.0405,1.2191,0
2002/11/1 0:15,11.5176,0,0,0.1305,0.4559,0.4257,0.0956,1.3072,0
2002/11/1 0:30,11.5308,0,0,0.1349,0.185,0.3417,0.0436,0.8232,0
2002/11/1 0:45,11.6087,0,0,0.1342,0.4303,0.0706,0.0439,0.3116,0
2002/11/1 1:00,11.6329,0,0,0.1361,0.2334,0.0706,0.089,0.2998,0
2002/11/1 1:15,11.6987,0,0,0.1341,0.3812,0.0706,0.0439,0.2995,0
2002/11/1 1:30,2.4751,0,0,0.1356,0.2364,0.0707,0.0338,0.3037,0
2002/11/1 1:45,1.4927,0,0,0.1333,0.3751,0.0704,0.0812,0.3037,0
2002/11/1 2:00,11.3855,0,0,0.1351,0.2125,0.0707,0.0328,0.2582,0
2002/11/1 2:15,10.7738,0,0,0.1345,0.394,0.0707,0.0331,0.2936,0
2002/11/1 2:30,1.5104,0,0,0.1309,0.1722,0.0706,0.0825,0.3074,0
2002/11/1 2:45,0.0855,0,0,0.1378,0.4332,0.0708,0.0334,0.3331,0
2002/11/1 3:00,4.3476,0,0,0.1362,0.1503,0.0703,0.0336,0.3318,0
2002/11/1 3:15,11.4653,0,0,0.131,0.4467,0.0706,0.0762,0.3135,0
2002/11/1 3:30,3.5469,0,0,0.1356,0.1516,0.0704,0.0336,0.3038,0
2002/11/1 3:45,0.0006,0,0,0.1331,0.4329,0.0706,0.0815,0.3372,0
2002/11/1 4:00,0.0006,0,0,0.1354,0.1669,0.0706,0.0333,0.33,0
2002/11/1 4:15,4.5219,0,0,0.1339,0.3604,0.0706,0.0344,0.2992,0
2002/11/1 4:30,11.3727,0,0,0.1336,0.2364,0.0706,0.0855,0.2942,0
2002/11/1 4:45,1.5709,0,0,0.1332,0.2857,0.0706,0.0338,0.3325,0
2002/11/1 5:00,0,0,0,0.1358,0.311,0.0706,0.0341,0.3312,0
2002/11/1 5:15,0.9468,0,0,0.1316,0.2046,0.0704,0.0341,0.32,0
2002/11/1 5:30,1.4854,0,0,0.1364,0.39,0.0706,0.078,0.2964,0
2002/11/1 5:45,7.6463,0,0,0.1326,0.1444,0.0704,0.0347,0.2457,0
2002/11/1 6:00,6.8884,0,0,0.1348,0.4454,0.0706,0.0935,0.3226,0
2002/11/1 6:15,0.4085,0,0,0.1336,0.1472,0.0703,0.0456,0.3128,0
2002/11/1 6:30,1.4796,0,0,0.1381,0.3889,0.2022,0.0903,0.4169,0
2002/11/1 6:45,0.5134,0,0,2.3272,0.2023,0.4409,0.0446,0.8575,0
2002/11/1 7:00,0.0003,0,0,4.9785,0.3437,0.4332,0.0873,1.2698,0
2002/11/1 7:15,9.2615,0,0,1.9876,0.287,0.4398,0.0446,1.0191,0
2002/11/1 7:30,6.0366,0,0,0.8561,0.2928,0.456,0.0446,0.9841,0
2002/11/1 7:45,1.1706,0,0,0.1447,0.3151,0.4471,0.095,1.3388,0
2002/11/1 8:00,0,0,0,0.1359,0.4382,0.4447,0.0635,1.1328,0
2002/11/1 8:15,0,0,0,0.1424,0.4663,0.4189,0.1256,1.0695,0
2002/11/1 8:30,0.0006,0,0,0.14,0.6016,0.4064,0.0445,1.1373,0
2002/11/1 8:45,0.0003,0,0,0.1377,0.4406,0.4222,0.0832,1.121,0
2002/11/1 9:00,0.0003,0,0,0.1392,0.4618,0.4176,0.0448,1.0578,0
2002/11/1 9:15,0,0,0,0.1341,0.4774,0.3694,0.091,0.6232,0
2002/11/1 9:30,0,0,0,0.1372,0.4657,0.0251,0.0478,0.4154,0
2002/11/1 9:45,0,0,0,0.1403,0.4336,0.0249,0.0454,0.4018,0
2002/11/1 10:00,0,0,0,0.1344,0.1984,0.0249,0.0455,0.3836,0
2002/11/1 10:15,0,0,0,0.1372,0.3541,0.0251,0.096,0.397,0
2002/11/1 10:30,0.0006,0,0,0.1378,0.2612,0.0249,0.0452,0.4023,0
2002/11/1 10:45,0,0,0,0.1394,0.2857,0.0251,0.0454,0.4082,0
2002/11/1 11:00,0,0,0,0.1369,0.321,0.0249,0.0899,0.3957,0
2002/11/1 11:15,0.0003,0,0,0.138,0.212,0.0251,0.0452,0.4012,0
2002/11/1 11:30,0,0,0,0.1367,0.3881,0.0252,0.0451,0.3914,0
2002/11/1 11:45,0,0,0,0.1385,0.1499,0.0301,0.091,0.4078,0
2002/11/1 12:00,0,0,0,0.1381,0.4458,0.0287,0.0348,0.4039,0
2002/11/1 12:15,0.0006,0,0,0.1398,0.1532,0.0253,0.035,0.4041,0
2002/11/1 12:30,0,0,0,0.1341,0.4052,0.0252,0.0852,0.4071,0
2002/11/1 12:45,0.0003,0,0,0.1394,0.1891,0.0251,0.0347,0.3959,0
2002/11/1 13:00,0,0,0,0.1368,0.3172,0.0252,0.0346,0.4075,0
2002/11/1 13:15,0,0,0,0.1394,0.2726,0.0249,0.0831,0.4146,0
2002/11/1 13:30,0,0,0,0.1367,0.2281,0.0884,0.0449,0.4016,0
2002/11/1 13:45,0,0,0,0.1404,0.3581,0.093,0.0459,0.4054,0
2002/11/1 14:00,0,0,0,0.1358,0.1413,0.0311,0.0986,0.383,0
2002/11/1 14:15,0,0,0,0.141,0.4406,0.0248,0.0469,0.5181,0
2002/11/1 14:30,0,0,0,0.1378,0.1449,0.0249,0.1081,1.1066,0
2002/11/1 14:45,0,0,0,0.1378,0.3927,0.0251,0.0824,1.0427,0
2002/11/1 15:00,0,0,0,0.1404,0.1869,0.0678,0.0454,0.9923,0
2002/11/1 15:15,0,0,0,0.1354,0.305,0.168,0.0955,0.9099,0
2002/11/1 15:30,0,0,0,0.1394,0.2762,0.4041,0.0459,0.9105,0
2002/11/1 15:45,0,0,0,0.1374,0.2144,0.4565,0.0462,0.9166,0
2002/11/1 16:00,0.0006,0,0,0.1378,0.3709,0.462,0.0922,0.9078,0
2002/11/1 16:15,0,0,0,0.1403,0.1764,0.4704,0.0462,0.9225,0
2002/11/1 16:30,0,0,0,0.1387,0.4418,0.2946,0.0461,0.8964,0
2002/11/1 16:45,0,0,0,0.1354,0.1675,0.0704,0.0949,0.9729,0
2002/11/1 17:00,0,0,0,0.1424,0.4411,0.0704,0.0445,1.8557,0
2002/11/1 17:15,0,0,0,1.1566,0.1621,0.0703,0.0468,1.3828,0
2002/11/1 17:30,0,0,0,3.887,0.4052,0.0706,0.0971,1.4944,0
2002/11/1 17:45,0,0,0,2.373,0.1971,0.071,0.0469,1.6795,0
2002/11/1 18:00,0,0,0,2.7736,0.3264,0.0706,0.0469,2.1325,0
2002/11/1 18:15,0,0,0,1.6096,0.2704,0.07,0.0949,1.7484,0
2002/11/1 18:30,0,0,0,1.011,0.2765,0.0696,0.0471,1.6988,0
2002/11/1 18:45,0,0,0,0.2206,0.328,0.0696,0.0465,1.192,0
2002/11/1 19:00,0,0,0,0.2412,0.2161,0.4114,0.093,1.2658,0
2002/11/1 19:15,0,0,0,0.2438,0.3853,0.4303,0.0464,1.1975,0
2002/11/1 19:30,0.0001,0,0,0.2464,0.1528,0.4637,0.0468,1.3444,0
2002/11/1 19:45,0.0003,0,0,0.1918,0.444,0.3126,0.0942,1.3144,0
2002/11/1 20:00,0,0,0,0.1696,0.1541,0.0698,0.0469,1.5756,0
2002/11/1 20:15,0.0009,0,0,0.1604,0.3738,0.0698,0.0474,1.3513,0
2002/11/1 20:30,0,0,0,0.1866,0.2172,0.0697,0.0984,1.3925,0
2002/11/1 20:45,0,0,0,0.1932,0.2733,0.0697,0.0469,1.6852,0
2002/11/1 21:00,0,0,0,0.2066,0.318,0.0697,0.0469,1.2619,0
2002/11/1 21:15,0,0,0,0.2065,0.1685,0.0696,0.0943,1.7736,0
2002/11/1 21:30,0,0,0,0.2016,0.4186,0.0698,0.0467,1.2145,0
2002/11/1 21:45,0.0003,0,0,0.2046,0.1486,0.0697,0.0361,1.0663,0
2002/11/1 22:00,0,0,0,0.2084,0.4419,0.0696,0.0907,1.1023,0
2002/11/1 22:15,0,0,0,0.2058,0.1496,0.1416,0.1166,0.8519,0
2002/11/1 22:30,0,0,0,0.2053,0.3541,0.3421,0.9377,0.7615,0
2002/11/1 22:45,0,0,0,0.2112,0.2301,0.3735,0.669,0.7763,0
2002/11/1 23:00,10.062,0,0,0.2061,0.2421,0.4008,0.7772,1.132,0
2002/11/1 23:15,11.4376,0,0,0.2091,0.34,0.4581,0.0366,0.8778,0
2002/11/1 23:30,11.5446,0,0,0.2055,0.1382,0.4486,0.0848,0.8721,0
2002/11/1 23:45,11.6417,0,0,0.213,0.4435,0.3804,0.0366,0.8484,0
2002/11/2 0:00,11.5386,0,0,0.2105,0.1447,0.3897,0.0465,1.3105,0
2002/11/2 0:15,11.4921,0,0,0.2036,0.3626,0.0868,0.1004,1.025,0
2002/11/2 0:30,11.4409,0,0,0.2091,0.2238,0.2075,0.0477,0.7249,0
2002/11/2 0:45,11.508,0,0,0.2097,0.3419,0.3639,0.049,0.6245,0
2002/11/2 1:00,11.4972,0,0,0.2023,0.2478,0.0252,0.0973,0.3472,0
2002/11/2 1:15,11.5714,0,0,0.217,0.2709,0.0253,0.0482,0.3,0
2002/11/2 1:30,11.6556,0,0,0.2078,0.3167,0.0256,0.0374,0.2971,0
2002/11/2 1:45,6.2376,0,0,0.3286,0.1873,0.0255,0.0874,0.4025,0
2002/11/2 2:00,1.5047,0,0,0.4061,0.3979,0.0256,0.0367,0.5687,0
2002/11/2 2:15,8.3608,0,0,0.2886,0.1414,0.0255,0.0367,0.573,0
2002/11/2 2:30,11.6232,0,0,0.1679,0.4392,0.0256,0.0916,0.3132,0
2002/11/2 2:45,3.9933,0,0,0.2212,0.1428,0.0258,0.037,0.5412,0
2002/11/2 3:00,1.4835,0,0,0.2369,0.3488,0.0253,0.0373,0.5286,0
2002/11/2 3:15,3.0342,0,0,0.2375,0.2301,0.0256,0.0863,0.4794,0
2002/11/2 3:30,10.1968,0,0,0.2382,0.2524,0.0255,0.0374,0.5458,0
2002/11/2 3:45,5.4579,0,0,0.2436,0.3277,0.0258,0.0376,0.4854,0
2002/11/2 4:00,1.5168,0,0,0.2386,0.1524,0.0259,0.0858,0.4861,0
2002/11/2 4:15,0.2112,0,0,0.2393,0.4267,0.0259,0.0377,0.5795,0
2002/11/2 4:30,5.2508,0,0,0.2416,0.1384,0.0259,0.0379,0.5157,0
2002/11/2 4:45,11.1876,0,0,0.2392,0.378,0.0256,0.0841,0.448,0
2002/11/2 5:00,1.5126,0,0,0.2464,0.1984,0.0259,0.038,0.3452,0
2002/11/2 5:15,0.0252,0,0,0.2409,0.2746,0.0258,0.0382,0.5759,0
2002/11/2 5:30,0.0003,0,0,0.2383,0.3018,0.0256,0.0878,0.486,0
2002/11/2 5:45,5.7095,0,0,0.2362,0.1672,0.0258,0.0382,0.3879,0
2002/11/2 6:00,11.5046,0,0,0.2514,0.4045,0.0255,0.0488,0.4719,0
2002/11/2 6:15,0.1241,0,0,0.2405,0.1345,0.0256,0.1021,0.5037,0
2002/11/2 6:30,0,0,0,0.2398,0.3884,0.0253,0.0491,0.5162,0
2002/11/2 6:45,0.7154,0,0,0.2452,0.1796,0.0305,0.0491,0.4673,0
2002/11/2 7:00,3.0894,0,0,0.2352,0.4321,0.0382,0.1261,0.4275,0
2002/11/2 7:15,10.4867,0,0,0.238,0.4329,0.0256,0.6358,0.4287,0
2002/11/2 7:30,2.8896,0,0,0.2465,0.6107,0.0258,0.6021,0.3449,0
2002/11/2 7:45,0.408,0,0,0.1994,0.4765,0.0256,0.7752,0.3108,0
2002/11/2 8:00,0.1747,0,0,0.1606,0.4465,0.0259,0.2599,0.2737,0
2002/11/2 8:15,0,0,0,0.1593,0.4648,0.2739,0.0494,0.2815,0
2002/11/2 8:30,0,0,0,0.1748,0.4474,0.4476,0.096,0.286,0
2002/11/2 8:45,0,0,0,0.1974,0.2241,0.4514,0.0497,0.2537,0
2002/11/2 9:00,0,0,0,1.4956,0.3934,0.4283,0.0495,0.2811,0
2002/11/2 9:15,0,0,0,0.5144,0.158,0.0252,0.0996,0.8568,0
2002/11/2 9:30,0,0,0,0.14,0.4494,0.0252,0.0487,0.5763,0
2002/11/2 9:45,0,0,0,0.138,0.1655,0.0252,0.0474,0.6481,0
2002/11/2 10:00,0,0,0,0.1331,0.445,0.0252,0.0962,2.5528,0
2002/11/2 10:15,0,0,0,0.1344,0.1829,0.0252,0.0498,0.9075,0
2002/11/2 10:30,0,0,0,0.1354,0.3948,0.0251,0.0491,0.7969,0
2002/11/2 10:45,0.0003,0,0,0.1367,0.2212,0.0252,0.0988,0.8168,0
2002/11/2 11:00,0,0,0,0.1342,0.3155,0.0252,0.0491,0.7553,0
2002/11/2 11:15,0,0,0,0.1407,0.3015,0.0253,0.0488,1.1909,0
2002/11/2 11:30,0,0,0,0.1355,0.2347,0.0252,0.096,0.5557,0
2002/11/2 11:45,0.0003,0,0,0.1364,0.3804,0.0304,0.0484,0.4683,0
2002/11/2 12:00,0,0,0,0.1351,0.162,0.0289,0.0383,0.7258,0
2002/11/2 12:15,0,0,0,0.1356,0.4506,0.0253,0.0883,0.8434,0
2002/11/2 12:30,0,0,0,0.1397,0.1634,0.0253,0.0369,0.4226,0
2002/11/2 12:45,0.0001,0,0,0.1325,0.3925,0.0255,0.0922,0.3036,0
2002/11/2 13:00,0,0,0,0.1361,0.2144,0.0253,0.0374,0.2998,0
2002/11/2 13:15,0,0,0,0.1335,0.2962,0.0253,0.0372,0.302,0
2002/11/2 13:30,0,0,0,0.1371,0.3083,0.0252,0.0945,0.2936,0
2002/11/2 13:45,0,0,0,0.3495,0.2808,0.0253,0.0485,0.4524,0
2002/11/2 14:00,0,0,0,2.1102,0.4372,0.0253,0.0477,0.9334,0
2002/11/2 14:15,0,0,0,0.1283,0.1735,0.0251,0.0996,0.8865,0
2002/11/2 14:30,0.0003,0,0,0.1338,0.3537,0.0253,0.0477,0.8114,0
2002/11/2 14:45,0,0,0,0.1361,0.256,0.0253,0.0482,0.3106,0
2002/11/2 15:00,0,0,0,0.1284,0.2494,0.0256,0.0966,0.2922,0
2002/11/2 15:15,0.0003,0,0,0.1369,0.3568,0.0253,0.0478,0.2916,0
2002/11/2 15:30,0,0,0,0.1326,0.15,0.0253,0.0477,0.2807,0
2002/11/2 15:45,0,0,0,0.1303,0.449,0.0253,0.1028,0.2913,0
2002/11/2 16:00,0,0,0,0.1355,0.1538,0.0252,0.0472,0.2779,0
2002/11/2 16:15,0,0,0,0.1286,0.376,0.0249,0.0469,0.3102,0
2002/11/2 16:30,0,0,0,0.1354,0.2209,0.0252,0.0981,1.0459,0
2002/11/2 16:45,0,0,0,0.1345,0.2948,0.0252,0.0455,1.438,0
2002/11/2 17:00,0,0,0,0.1346,0.3034,0.0249,0.0465,1.441,0
2002/11/2 17:15,0,0,0,0.1277,0.1971,0.0252,0.0959,1.1913,0
2002/11/2 17:30,0,0,0,0.1382,0.398,0.0251,0.0468,1.403,0
2002/11/2 17:45,0,0,0,0.6936,0.1506,0.0252,0.0469,1.6034,0
2002/11/2 18:00,0,0,0,0.7037,0.4419,0.0252,0.0985,1.55,0
2002/11/2 18:15,0,0,0,3.1563,0.1529,0.0249,0.0471,2.0277,0
2002/11/2 18:30,0,0,0,0.2454,0.3889,0.0275,0.0471,1.9092,0
2002/11/2 18:45,0.0003,0,0,1.6501,0.2059,0.04,0.0948,1.7336,0
2002/11/2 19:00,0,0,0,3.524,0.3184,0.1976,0.0482,1.3843,0
2002/11/2 19:15,0,0,0,1.3206,0.2756,0.0933,0.0478,1.2021,0
2002/11/2 19:30,0,0,0,0.1361,0.2557,0.0334,0.0979,1.7476,0
2002/11/2 19:45,0,0,0,0.1331,0.3516,0.0248,0.0575,1.4682,0
2002/11/2 20:00,0,0,0,0.1352,0.1751,0.0251,0.0829,1.0899,0
2002/11/2 20:15,0,0,0,0.1356,0.4326,0.2074,0.0464,1.1406,0
2002/11/2 20:30,0.0003,0,0,0.1316,0.159,0.4861,0.0969,1.3386,0
2002/11/2 20:45,0,0,0,0.1325,0.3908,0.291,0.048,1.2266,0
2002/11/2 21:00,0.0003,0,0,0.1384,0.2028,0.0832,0.0373,1.3296,0
2002/11/2 21:15,0.002,0,0,0.1355,0.269,0.071,0.0899,1.0822,0
2002/11/2 21:30,0.0006,0,0,0.1346,0.3214,0.0706,0.0363,1.205,0
2002/11/2 21:45,0.0004,0,0,0.1333,0.1483,0.0704,0.0346,1.8004,0
2002/11/2 22:00,0.0006,0,0,0.1326,0.4388,0.0703,0.0906,2.123,0
2002/11/2 22:15,0.0006,0,0,0.1401,0.149,0.0408,0.0369,1.3607,0
2002/11/2 22:30,0.0003,0,0,0.1305,0.3624,0.0252,0.0626,1.1307,0
2002/11/2 22:45,0,0,0,0.1395,0.2301,0.0978,0.9648,0.9845,0
2002/11/2 23:00,9.9351,0,0,1.3825,0.4434,0.3712,0.6731,1.1251,0
2002/11/2 23:15,11.3037,0,0,1.1634,0.1529,0.3722,0.5885,1.2027,0
2002/11/2 23:30,11.3895,0,0,0.0374,0.4471,0.4012,0.4598,1.0824,0
2002/11/2 23:45,11.4061,0,0,0.0827,0.1508,0.3946,0.0374,1.2054,0
2002/11/3 0:00,11.3666,0,0,0.1214,0.4422,0.3853,0.0477,1.154,0
2002/11/3 0:15,11.5037,0,0,0.1358,0.1512,0.0343,0.0488,1.3271,0
2002/11/3 0:30,11.5332,0,0,0.1407,0.4438,0.0251,0.106,1.1739,0
2002/11/3 0:45,11.4791,0,0,0.1388,0.1512,0.0252,0.0474,1.5336,0
2002/11/3 1:00,11.5331,0,0,0.1397,0.4441,0.0252,0.0474,0.5851,0
2002/11/3 1:15,11.6028,0,0,0.1371,0.1511,0.0253,0.0992,0.31,0
2002/11/3 1:30,4.7933,0,0,0.1384,0.4144,0.0253,0.0387,0.3228,0
2002/11/3 1:45,1.5039,0,0,0.1405,0.1783,0.0256,0.0387,0.3223,0
2002/11/3 2:00,9.2936,0,0,0.1387,0.3675,0.0255,0.084,0.2572,0
2002/11/3 2:15,11.4055,0,0,0.1378,0.2202,0.0248,0.0383,0.3038,0
2002/11/3 2:30,3.6042,0,0,0.1391,0.3159,0.0251,0.0847,0.3234,0
2002/11/3 2:45,1.4736,0,0,0.1397,0.2644,0.0251,0.0389,0.3089,0
2002/11/3 3:00,3.4913,0,0,0.1404,0.2676,0.0252,0.0389,0.3021,0
2002/11/3 3:15,11.4755,0,0,0.1417,0.3113,0.0252,0.093,0.3108,0
2002/11/3 3:30,4.7252,0,0,0.1372,0.2105,0.0252,0.0393,0.3319,0
2002/11/3 3:45,0.3648,0,0,0.1446,0.3673,0.0253,0.0399,0.3303,0
2002/11/3 4:00,1.4918,0,0,0.1365,0.1489,0.0253,0.088,0.3105,0
2002/11/3 4:15,5.0931,0,0,0.1436,0.4264,0.0253,0.0402,0.3194,0
2002/11/3 4:30,10.1432,0,0,0.1385,0.1355,0.0253,0.0917,0.3607,0
2002/11/3 4:45,1.4216,0,0,0.1405,0.4382,0.0253,0.0405,0.3891,0
2002/11/3 5:00,1.4923,0,0,0.1408,0.1352,0.0255,0.0405,0.3051,0
2002/11/3 5:15,1.3471,0,0,0.1394,0.3812,0.0253,0.0891,0.325,0
2002/11/3 5:30,3.2468,0,0,0.1403,0.1882,0.0252,0.0409,0.322,0
2002/11/3 5:45,10.0467,0,0,0.142,0.4294,0.0251,0.0409,0.3139,0
2002/11/3 6:00,2.9501,0,0,0.1401,0.4314,0.0256,0.0933,0.3658,0
2002/11/3 6:15,1.3909,0,0,0.1378,0.599,0.0256,0.0527,0.3227,0
2002/11/3 6:30,0.0003,0,0,0.1437,0.4817,0.0253,0.0989,0.3427,0
2002/11/3 6:45,1.1125,0,0,0.1414,0.4398,0.0305,0.053,0.3197,0
2002/11/3 7:00,11.0223,0,0,0.1395,0.4576,0.0374,0.0526,0.3034,0
2002/11/3 7:15,5.2104,0,0,0.1385,0.4532,0.0251,0.0982,0.3221,0
2002/11/3 7:30,0.1466,0,0,0.1375,0.4441,0.0253,0.0528,0.3388,0
2002/11/3 7:45,0,0,0,0.1385,0.1616,0.0255,0.1008,0.3384,0
2002/11/3 8:00,0,0,0,0.1404,0.3442,0.0255,0.053,0.3439,0
2002/11/3 8:15,0,0,0,0.1381,0.2475,0.0253,0.0533,0.3378,0
2002/11/3 8:30,0,0,0,0.138,0.2716,0.0252,0.1004,0.3472,0
2002/11/3 8:45,0,0,0,0.1375,0.3113,0.0249,0.0527,0.327,0
2002/11/3 9:00,0,0,0,1.8498,0.2007,0.0253,0.1038,0.4039,0
2002/11/3 9:15,0,0,0,2.5603,0.382,0.0255,0.0507,0.4362,0
2002/11/3 9:30,0,0,0,0.132,0.3398,0.0253,0.0556,0.4771,0
2002/11/3 9:45,0,0,0,0.1398,0.2604,0.0255,0.1044,0.9782,0
2002/11/3 10:00,0,0,0,0.1378,0.3329,0.0255,0.0516,0.6448,0
2002/11/3 10:15,0,0,0,0.1391,0.266,0.0258,0.1126,0.4578,0
2002/11/3 10:30,0,0,0,0.1377,0.3025,0.0256,0.0508,0.4598,0
2002/11/3 10:45,0,0,0,0.1404,0.2953,0.0258,0.0972,0.5394,0
2002/11/3 11:00,0.0001,0,0,0.1385,0.2517,0.0258,0.0495,2.1097,0
2002/11/3 11:15,0,0,0,0.1392,0.3437,0.0256,0.1057,1.1896,0
2002/11/3 11:30,0,0,0,0.1368,0.1932,0.0258,0.0488,0.4847,0
2002/11/3 11:45,0.0003,0,0,0.1371,0.4016,0.0307,0.0485,0.5445,0
2002/11/3 12:00,0,0,0,0.1398,0.1447,0.0292,0.0377,0.577,0
2002/11/3 12:15,0,0,0,0.1394,0.4464,0.0253,0.0884,0.4552,0
2002/11/3 12:30,0.0003,0,0,0.1328,0.1483,0.0252,0.037,0.4576,0
2002/11/3 12:45,0,0,0,0.1365,0.4293,0.0253,0.0369,0.4533,0
2002/11/3 13:00,0,0,0,0.1369,0.1639,0.0253,0.0868,0.4477,0
2002/11/3 13:15,0,0,0,0.1359,0.3554,0.0253,0.0361,0.4611,0
2002/11/3 13:30,0,0,0,0.1358,0.2402,0.0252,0.0461,0.4415,0
2002/11/3 13:45,0,0,0,0.1349,0.2804,0.0253,0.0943,0.4445,0
2002/11/3 14:00,0,0,0,0.1338,0.3165,0.0253,0.0461,0.4431,0
2002/11/3 14:15,0,0,0,0.1368,0.2053,0.0253,0.0456,0.4588,0
2002/11/3 14:30,0.0006,0,0,0.1354,0.3925,0.0252,0.0946,0.447,0
2002/11/3 14:45,0,0,0,0.1349,0.148,0.0253,0.0448,0.4427,0
2002/11/3 15:00,0,0,0,0.1332,0.4493,0.0252,0.0446,0.4481,0
2002/11/3 15:15,0,0,0,0.1387,0.1519,0.0252,0.0996,0.4465,0
2002/11/3 15:30,0,0,0,0.1331,0.4118,0.0253,0.0445,0.4585,0
2002/11/3 15:45,0,0,0,0.1356,0.1866,0.0252,0.0442,0.4414,0
2002/11/3 16:00,0,0,0,0.1354,0.3361,0.0251,0.0441,0.453,0
2002/11/3 16:15,0.0003,0,0,0.1338,0.2619,0.0251,0.094,0.4391,0
2002/11/3 16:30,0.0006,0,0,0.1336,0.2619,0.0252,0.0438,0.4478,0
2002/11/3 16:45,0.0003,0,0,0.1362,0.3357,0.0251,0.0435,0.4598,0
2002/11/3 17:00,0.0003,0,0,0.1342,0.186,0.0249,0.0981,0.4827,0
2002/11/3 17:15,0.0006,0,0,0.1377,0.4082,0.0248,0.0435,0.4847,0
2002/11/3 17:30,0,0,0,0.1342,0.1492,0.0252,0.0436,0.5016,0
2002/11/3 17:45,0,0,0,0.1397,0.4455,0.0253,0.0436,0.4959,0
2002/11/3 18:00,0,0,0,0.1319,0.1502,0.0253,0.0966,0.4925,0
2002/11/3 18:15,0,0,0,0.1382,0.3872,0.0256,0.0439,0.4169,0
2002/11/3 18:30,0,0,0,0.1345,0.2098,0.0256,0.0485,0.4239,0
2002/11/3 18:45,0,0,0,0.1367,0.3073,0.0305,0.0973,1.9542,0
2002/11/3 19:00,0.0001,0,0,0.138,0.2897,0.038,0.0448,1.7533,0
2002/11/3 19:15,0,0,0,1.0755,0.2634,0.1984,0.0448,2.2735,0
2002/11/3 19:30,0,0,0,0.1424,0.4503,0.3751,0.0451,1.3615,0
2002/11/3 19:45,0,0,0,0.1331,0.1587,0.374,0.0996,1.0547,0
2002/11/3 20:00,0.0003,0,0,0.138,0.4,0.3649,0.0445,1.0934,0
2002/11/3 20:15,0.0006,0,0,0.1377,0.1983,0.3681,0.0446,1.0218,0
2002/11/3 20:30,0,0,0,0.1328,0.3365,0.3794,0.0959,0.8745,0
2002/11/3 20:45,0,0,0,0.1394,0.2595,0.3754,0.0448,0.9835,0
2002/11/3 21:00,0,0,0,0.1385,0.267,0.4041,0.0448,0.8515,0
2002/11/3 21:15,0,0,0,0.1371,0.3263,0.4081,0.0448,0.897,0
2002/11/3 21:30,0,0,0,0.1374,0.1957,0.408,0.0994,0.8875,0
2002/11/3 21:45,0,0,0,0.1345,0.393,0.4022,0.0347,0.8679,0
2002/11/3 22:00,0,0,0,0.1375,0.139,0.3614,0.0351,1.2054,0
2002/11/3 22:15,0,0,0,0.1349,0.445,0.3616,0.0838,1.2128,0
2002/11/3 22:30,0,0,0,0.1356,0.1453,0.3865,0.0405,0.8568,0
2002/11/3 22:45,0.0003,0,0,0.1325,0.394,0.3851,0.0304,1.1411,0
2002/11/3 23:00,9.994,0,0,0.1411,0.1931,0.3933,0.0876,1.0601,0
2002/11/3 23:15,11.3679,0,0,0.1362,0.2445,0.3684,0.0356,1.0328,0
2002/11/3 23:30,11.443,0,0,0.1345,0.3339,0.3934,0.0357,0.9821,0
2002/11/3 23:45,11.4072,0,0,0.1377,0.1384,0.3829,0.0914,0.976,0
2002/11/4 0:00,11.4945,0,0,0.1392,0.3812,0.4046,0.0467,1.0643,0
2002/11/4 0:15,11.519,0,0,0.1382,0.197,0.3652,0.0482,1.1665,0
2002/11/4 0:30,11.5409,0,0,0.1348,0.239,0.3745,0.0926,1.1809,0
2002/11/4 0:45,11.5728,0,0,0.1397,0.3383,0.3626,0.0478,1.1773,0
2002/11/4 1:00,11.5929,0,0,0.1367,0.139,0.38,0.0477,1.0993,0
2002/11/4 1:15,11.6735,0,0,0.1387,0.3859,0.2405,0.0985,0.7181,0
2002/11/4 1:30,3.2669,0,0,0.1378,0.1938,0.0258,0.0379,0.3047,0
2002/11/4 1:45,1.5036,0,0,0.1375,0.2429,0.0259,0.0376,0.318,0
2002/11/4 2:00,11.1155,0,0,0.1382,0.3341,0.0255,0.0841,0.2484,0
2002/11/4 2:15,11.0958,0,0,0.1385,0.1361,0.0258,0.0379,0.3712,0
2002/11/4 2:30,1.5201,0,0,0.1355,0.3966,0.0261,0.066,0.3057,0
2002/11/4 2:45,1.4992,0,0,0.1441,0.1801,0.0255,0.0599,0.3145,0
2002/11/4 3:00,6.6138,0,0,0.1359,0.2527,0.0253,0.0382,0.3112,0
2002/11/4 3:15,11.5116,0,0,0.1372,0.3169,0.0253,0.0904,0.3108,0
2002/11/4 3:30,1.5132,0,0,0.1397,0.1296,0.0255,0.0387,0.3506,0
2002/11/4 3:45,0.1166,0,0,0.1395,0.4143,0.0258,0.0389,0.3411,0
2002/11/4 4:00,1.4967,0,0,0.1382,0.1591,0.0255,0.0816,0.2975,0
2002/11/4 4:15,7.8371,0,0,0.1374,0.2743,0.0255,0.0392,0.3133,0
2002/11/4 4:30,9.0327,0,0,0.14,0.2939,0.0258,0.0465,0.2912,0
2002/11/4 4:45,0,0,0,0.1411,0.1392,0.0255,0.0788,0.3457,0
2002/11/4 5:00,1.2804,0,0,0.1382,0.4245,0.0255,0.0399,0.3142,0
2002/11/4 5:15,1.4808,0,0,0.1351,0.4264,0.0255,0.09,0.3112,0
2002/11/4 5:30,4.1705,0,0,0.1413,0.5396,0.0255,0.0402,0.2601,0
2002/11/4 5:45,10.1893,0,0,0.1433,0.561,0.0258,0.0405,0.3084,0
2002/11/4 6:00,1.5245,0,0,0.1416,0.3956,0.0256,0.0988,0.3141,0
2002/11/4 6:15,1.4934,0,0,0.1397,0.4581,0.0256,0.052,0.3156,0
2002/11/4 6:30,0.1081,0,0,0.1397,0.4512,0.0256,0.0992,0.3388,0
2002/11/4 6:45,0.0557,0,0,0.138,0.1695,0.0304,0.052,0.3384,0
2002/11/4 7:00,10.769,0,0,0.1395,0.436,0.0377,0.0517,0.3201,0
2002/11/4 7:15,5.8805,0,0,0.1372,0.1542,0.0253,0.1004,0.2965,0
2002/11/4 7:30,0.3447,0,0,0.14,0.3108,0.0253,0.052,0.3288,0
2002/11/4 7:45,0,0,0,0.1431,0.268,0.0255,0.0518,0.3299,0
2002/11/4 8:00,0,0,0,0.138,0.1866,0.0259,0.1009,0.3463,0
2002/11/4 8:15,0,0,0,0.1368,0.3914,0.1329,0.0531,0.3519,0
2002/11/4 8:30,0,0,0,0.1407,0.14,0.4208,0.0973,0.4107,0
2002/11/4 8:45,0,0,0,0.139,0.3565,0.4512,0.0508,0.4042,0
2002/11/4 9:00,0.0003,0,0,0.1352,0.2192,0.4526,0.0504,0.4172,0
2002/11/4 9:15,0,0,0,0.1378,0.3701,0.4707,0.1058,0.4051,0
2002/11/4 9:30,0.0003,0,0,0.6276,0.2151,0.4834,0.0504,0.4038,0
2002/11/4 9:45,0,0,0,0.5707,0.3496,0.4723,0.0504,2.3417,0
2002/11/4 10:00,0,0,0,0.6011,0.2408,0.0249,0.1004,1.0715,0
2002/11/4 10:15,0,0,0,0.1325,0.3197,0.0249,0.0475,1.1,0
2002/11/4 10:30,0,0,0,0.1375,0.2756,0.0251,0.0485,0.9756,0
2002/11/4 10:45,0,0,0,0.1345,0.2818,0.0251,0.0984,0.9939,0
2002/11/4 11:00,0,0,0,0.1323,0.3159,0.0252,0.0894,0.9111,0
2002/11/4 11:15,0,0,0,0.1364,0.2759,0.0252,0.0537,0.7808,0
2002/11/4 11:30,0,0,0,0.1368,0.3262,0.0252,0.1031,0.5924,0
2002/11/4 11:45,0,0,0,0.1364,0.2609,0.0301,0.0543,0.7741,0
2002/11/4 12:00,0.0003,0,0,0.1367,0.3349,0.0291,0.0893,0.5306,0
2002/11/4 12:15,0,0,0,0.1434,0.218,0.0255,0.039,0.5328,0
2002/11/4 12:30,0,0,0,0.1358,0.3711,0.0255,0.0383,0.6333,0
2002/11/4 12:45,0,0,0,0.1385,0.1636,0.0253,0.0884,0.5442,0
2002/11/4 13:00,0,0,0,0.1408,0.4195,0.0488,0.0384,0.5193,0
2002/11/4 13:15,0,0,0,0.3587,0.1407,0.0328,0.0379,0.6025,0
2002/11/4 13:30,0,0,0,0.6898,0.4419,0.4195,0.0998,0.5486,0
2002/11/4 13:45,0,0,0,1.8094,0.1416,0.321,0.0651,0.9474,0
2002/11/4 14:00,0,0,0,0.1336,0.45,0.0317,0.0936,0.702,0
2002/11/4 14:15,0,0,0,0.1336,0.1598,0.0252,0.049,0.5943,0
2002/11/4 14:30,0,0,0,0.1313,0.4483,0.0252,0.0544,0.5023,0
2002/11/4 14:45,0,0,0,0.1342,0.1578,0.0252,0.0907,0.3568,0
2002/11/4 15:00,0,0,0,0.1277,0.4275,0.0252,0.0487,0.3603,0
2002/11/4 15:15,0.0003,0,0,0.1371,0.1714,0.0252,0.1028,0.3545,0
2002/11/4 15:30,0,0,0,0.1273,0.3339,0.0252,0.0481,0.3597,0
2002/11/4 15:45,0,0,0,0.1341,0.2642,0.0252,0.0478,0.3518,0
2002/11/4 16:00,0,0,0,0.1331,0.2339,0.0253,0.0477,0.3633,0
2002/11/4 16:15,0,0,0,0.1365,0.3609,0.0252,0.0971,0.3578,0
2002/11/4 16:30,0,0,0,0.1295,0.1469,0.0249,0.0474,0.3593,0
2002/11/4 16:45,0,0,0,0.1359,0.4431,0.0252,0.0471,0.3796,0
2002/11/4 17:00,0,0,0,0.1332,0.1516,0.0253,0.0991,0.4005,0
2002/11/4 17:15,0,0,0,0.129,0.3561,0.0255,0.0471,0.4048,0
2002/11/4 17:30,0.0003,0,0,0.1423,0.2354,0.0253,0.1027,1.0498,0
2002/11/4 17:45,0,0,0,0.1374,0.4189,0.0253,0.0943,1.3667,0
2002/11/4 18:00,0,0,0,1.3385,0.1836,0.0252,0.0477,1.5019,0
2002/11/4 18:15,0,0,0,1.7139,0.4274,0.0253,0.0953,3.6168,0
2002/11/4 18:30,0.0001,0,0,2.4903,0.1719,0.0252,0.0477,3.0781,0
2002/11/4 18:45,0,0,0,1.8721,0.4031,0.1725,0.1004,2.0019,0
2002/11/4 19:00,0,0,0,1.1935,0.2017,0.3875,0.0478,1.4675,0
2002/11/4 19:15,0,0,0,0.1588,0.3851,0.3868,0.0474,1.7343,0
2002/11/4 19:30,0,0,0,1.8307,0.221,0.2962,0.0475,1.2839,0
2002/11/4 19:45,0,0,0,1.96,0.451,0.0253,0.0972,1.37,0
2002/11/4 20:00,0,0,0,0.2288,0.1701,0.0253,0.0475,1.242,0
2002/11/4 20:15,0,0,0,0.2416,0.453,0.0253,0.0471,1.3664,0
2002/11/4 20:30,0,0,0,0.2295,0.1617,0.0253,0.1387,1.3778,0
2002/11/4 20:45,0,0,0,0.2425,0.4484,0.0252,0.1954,1.3707,0
2002/11/4 21:00,0,0,0,0.2385,0.1554,0.0253,0.1103,1.2892,0
2002/11/4 21:15,0,0,0,0.2389,0.446,0.0255,0.0888,1.222,0
2002/11/4 21:30,0,0,0,0.2336,0.1521,0.0252,0.049,1.491,0
2002/11/4 21:45,0,0,0,0.2403,0.4376,0.0252,0.0873,1.5244,0
2002/11/4 22:00,0,0,0,0.2455,0.1572,0.0253,0.1968,1.3169,0
2002/11/4 22:15,0,0,0,0.1819,0.3852,0.0255,0.744,1.014,0
2002/11/4 22:30,0,0,0,0.1567,0.2092,0.0252,0.5377,1.1556,0
2002/11/4 22:45,0,0,0,0.165,0.3204,0.0949,0.5116,0.9707,0
2002/11/4 23:00,9.8742,0,0,0.1948,0.2707,0.3794,0.0891,1.5939,0
2002/11/4 23:15,11.4731,0,0,0.1976,0.2995,0.3914,0.0804,2.0858,0
2002/11/4 23:30,11.5714,0,0,0.2042,0.2933,0.394,0.0439,1.5813,0
2002/11/4 23:45,11.4326,0,0,0.203,0.2598,0.3781,0.0935,1.0411,0
2002/11/5 0:00,11.3936,0,0,0.2058,0.3299,0.3735,0.0549,1.1654,0
2002/11/5 0:15,11.5017,0,0,1.2695,0.2172,0.3869,0.0556,1.122,0
2002/11/5 0:30,11.5129,0,0,1.8958,0.3689,0.3862,0.1125,1.1029,0